Location: Balaclava NSW 2575, Australia
(34.4510°S, 150.4953°E)
Time: 06:04:06
(UTC+10:00)

Envisat - Pass Details

Date: 18 May 2021
Orbit: 764 x 766 km, 98.1° (Epoch: 15 June)

Event Time Altitude Azimuth Distance (km) Brightness Sun altitude
Rises 03:16:12 0° 63° (ENE) 3,229 6.8 -43.1°
Reaches altitude 10° 03:19:47 10° 90° (E) 2,314 6.1 -42.4°
Maximum altitude 03:22:02 13° 116° (ESE) 2,116 5.8 -42.0°
Enters shadow 03:22:47 13° 125° (SE) 2,142 5.8 -41.8°
